Regional Weather Roundup
Issued by NWS

Home | Current Version | Previous Version | Text Only | Print | Product List | Glossary On
Versions: 1 2 3 4 5 6 7 8 9 10 11 12 13 14 15 16 17 18 19 20 21 22 23 24 25 26 27 28 29 30 31 32 33 34 35 36 37 38 39 40 41 42 43 44 45 46 47 48 49 50
000
ASUS45 KABQ 221810
RWRNM
WEATHER ROUNDUP FOR NEW MEXICO
NATIONAL WEATHER SERVICE ALBUQUERQUE NM
1200 PM MDT TUE JUL 22 2014

NOTE: "FAIR" MEANS FEW OR NO CLOUDS BELOW 12,000 FEET AGL WITH NO
       SIGNIFICANT WEATHER OR OBSTRUCTIONS TO VISION.

      THIS PRODUCT IS RELEASED AS TWO VERSIONS.  ONE VERSION NEAR
      THE TOP OF THE HOUR CONTAINING PRELIMINARY DATA FROM ALBUQUERQUE
      AND OTHER STATIONS.  A FINAL VERSION WITH ADDITIONAL DATA IS
      ISSUED ABOUT 10 MINUTES AFTER THE HOUR.

NMZ501-503-504-510>518-221900-
NORTHWEST PLATEAU/NORTHCENTRAL MOUNTAINS

CITY           SKY/WX    TMP DP  RH WIND       PRES   REMARKS
FARMINGTON     SUNNY     89  34  14 VRB3      30.29F
6HR MIN TEMP:  57; 6HR MAX TEMP:  89;

LOS ALAMOS     SUNNY     81  47  30 NE9       30.44F
SANTA FE       SUNNY     88  47  24 N14G21    30.35F
6HR MIN TEMP:  61; 6HR MAX TEMP:  88;

TAOS           SUNNY     82  43  24 NW10      30.45F
ANGEL FIRE     FAIR      78  42  26 N14       30.55S

$$
NMZ402-403-502-505>509-221900-
WESTCENTRAL MOUNTAINS/SOUTHWEST MOUNTAINS

CITY           SKY/WX    TMP DP  RH WIND       PRES   REMARKS
GALLUP         MOSUNNY   86  33  15 S10G18    30.39S
6HR MIN TEMP:  58; 6HR MAX TEMP:  89;

GRANTS         MOSUNNY   88  32  13 N12       30.40S
SILVER CITY    SUNNY     91  45  19 SE12G17   30.28F

$$
NMZ407-409-411-412-221900-
SOUTHERN DESERTS

CITY           SKY/WX    TMP DP  RH WIND       PRES   REMARKS
LORDSBURG      FAIR      91  46  21 CALM      30.18S
DEMING         SUNNY     94  48  20 VRB3      30.17F
6HR MIN TEMP:  66; 6HR MAX TEMP:  95;

LAS CRUCES     SUNNY     94  50  22 CALM      30.20S
HOLLOMAN AFB   SUNNY     94  54  26 NE1       30.15F
ALAMOGORDO     SUNNY     93  54  26 SW5       30.17F
T OR C         SUNNY     94  47  20 VRB6      30.21F
6HR MIN TEMP:  73; 6HR MAX TEMP:  95;


$$
NMZ519>523-221900-
CENTRAL VALLEYS/CENTRAL HIGHLANDS

CITY           SKY/WX    TMP DP  RH WIND       PRES   REMARKS
ALBUQUERQUE    PTSUNNY   89  49  25 W6        30.29S
6HR MIN TEMP:  77; 6HR MAX TEMP:  91;

DOUBLE EAGLE   PTSUNNY   82  52  34 VRB5      30.33F
MORIARTY ARPT  FAIR      87  48  25 NW8       30.35F
6HR MIN TEMP:  55; 6HR MAX TEMP:  88;

CLINES CORNERS SUNNY     85  50  29 N8        30.40F
6HR MIN TEMP:  60; 6HR MAX TEMP:  85;

BELEN          FAIR      88  49  25 NW5       30.27F
6HR MIN TEMP:  69; 6HR MAX TEMP:  89;

SOCORRO        FAIR      95  43  16 NE8       30.22F
6HR MIN TEMP:  74; 6HR MAX TEMP:  95;


$$
NMZ524>526-539-540-221900-
SOUTHCENTRAL MOUNTAINS

CITY           SKY/WX    TMP DP  RH WIND       PRES   REMARKS
RUIDOSO        SUNNY     84  50  30 MISG      30.41F

$$
NMZ527>531-221900-
NORTHEAST HIGHLANDS/NORTHEAST PLAINS

CITY           SKY/WX    TMP DP  RH WIND       PRES   REMARKS
LAS VEGAS      SUNNY     83  50  31 E10G18    30.41R
6HR MIN TEMP:  57; 6HR MAX TEMP:  83;

RATON          SUNNY     91  38  15 NE20G25   30.34S
6HR MIN TEMP:  55; 6HR MAX TEMP:  92;

CLAYTON        SUNNY     92  51  24 E13G20    30.26R
6HR MIN TEMP:  68; 6HR MAX TEMP:  92;


$$
NMZ532>537-221900-
EASTCENTRAL PLAINS

CITY           SKY/WX    TMP DP  RH WIND       PRES   REMARKS
TUCUMCARI      SUNNY     87  64  46 SW6       30.21F
6HR MIN TEMP:  69; 6HR MAX TEMP:  87;

CANNON AFB     MOSUNNY   82  65  55 VRB6      30.26F
6HR MIN TEMP:  67; 6HR MAX TEMP:  82; 6HR PCP:  0.01;

CLOVIS AIRPORT NOT AVBL

$$
NMZ028-029-538-221900-
SOUTHEAST PLAINS

CITY           SKY/WX    TMP DP  RH WIND       PRES   REMARKS
ROSWELL        SUNNY     89  65  44 S7        30.18S
6HR MIN TEMP:  71; 6HR MAX TEMP:  89;

ARTESIA        SUNNY     90  66  45 E9        30.17F
CARLSBAD       SUNNY     92  65  40 S10G16    30.14F
6HR MIN TEMP:  77; 6HR MAX TEMP:  93;

HOBBS          SUNNY     90  63  40 MISG      30.21S


$$


USA.gov is the U.S. government's official web portal to all federal, state and local government web resources and services.